Weather History for Adak, AK

Change the Weather History Date:

Wednesday, July 24, 2013

  Actual Average Record
Temperature  
Mean Temperature 52 °F -  
Max Temperature 57 °F 55 °F 65 °F (1965)
Min Temperature 48 °F 45 °F 32 °F (2006)
Degree Days  
Heating Degree Days 12    
Growing Degree Days 2 (Base 50)    
Moisture  
Dew Point 48 °F    
Average Humidity 86    
Maximum Humidity 94    
Minimum Humidity 75    
Precipitation  
Precipitation 0.00 in - - ()
Sea Level Pressure  
Sea Level Pressure 30.33 in    
Wind  
Wind Speed 9 mph (SSE)    
Max Wind Speed 18 mph    
Max Gust Speed 22 mph    
Visibility 10 miles    
Events      
Averages and records for this station are not official NWS values.
T = Trace of Precipitation, MM = Missing Value Source: NWS Daily Summary

Daily Weather History Graph

Daily Weather History Graph

Search for Another Location

Airport:

Trip Planner

Search our weather history database for the weather conditions in past years. The results will help you decide how hot, cold, wet, or windy it might be!

Date:

Astronomy

Jul. 24, 2013 Rise Set
Actual Time 6:57 AM HADT 10:47 PM HADT
Civil Twilight 6:14 AM HADT 11:30 PM HADT
Nautical Twilight 5:14 AM HADT 12:29 AM HADT
Astronomical Twilight 3:26 AM HADT 2:11 AM HADT
Moon 11:29 PM HADT (7/24) 10:02 AM HADT (7/24)
Length of Visible Light 17h 15m
Length of Day
15h 49m
Waning Gibbous, 94% of the Moon is Illuminated
Jul 24
Waning Gibbous
Jul 29
Last Quarter
Aug 6
New
Aug 14
First Quarter
Aug 20
Full

Hourly Weather History & Observations

Time (HADT) Temp. Dew Point Humidity Pressure Visibility Wind Dir Wind Speed Gust Speed Precip Events Conditions
12:16 AM 51.8 °F 48.2 °F 88% 30.42 in 10.0 mi Calm Calm - N/A   Clear
12:36 AM 51.8 °F 48.2 °F 88% 30.42 in 10.0 mi SSW 6.9 mph - N/A   Partly Cloudy
12:56 AM 50.0 °F 46.4 °F 87% 30.42 in 10.0 mi SSE 10.4 mph - N/A   Partly Cloudy
1:16 AM 51.8 °F 48.2 °F 88% 30.42 in 10.0 mi Calm Calm - N/A   Partly Cloudy
1:36 AM 51.8 °F 48.2 °F 88% 30.42 in 10.0 mi South 10.4 mph - N/A   Partly Cloudy
1:56 AM 51.8 °F 48.2 °F 88% 30.42 in 10.0 mi SSE 16.1 mph 21.9 mph N/A   Scattered Clouds
2:16 AM 51.8 °F 48.2 °F 88% 30.41 in 10.0 mi South 15.0 mph - N/A   Clear
2:36 AM 50.0 °F 46.4 °F 87% 30.41 in 10.0 mi SSW 6.9 mph 20.7 mph N/A   Clear
2:56 AM 51.8 °F 46.4 °F 82% 30.41 in 10.0 mi South 3.5 mph - N/A   Scattered Clouds
3:16 AM 51.8 °F 48.2 °F 88% 30.41 in 10.0 mi SE 3.5 mph - N/A   Partly Cloudy
3:36 AM 51.8 °F 48.2 °F 88% 30.39 in 10.0 mi South 16.1 mph - N/A   Clear
3:56 AM 50.0 °F 48.2 °F 94% 30.39 in 10.0 mi South 18.4 mph 21.9 mph N/A   Clear
4:16 AM 50.0 °F 46.4 °F 87% 30.40 in 10.0 mi SE 15.0 mph - N/A   Clear
4:36 AM 48.2 °F 46.4 °F 93% 30.40 in 10.0 mi SSE 13.8 mph - N/A   Partly Cloudy
4:56 AM 50.0 °F 46.4 °F 87% 30.39 in 10.0 mi SSE 12.7 mph - N/A   Mostly Cloudy
5:16 AM 50.0 °F 46.4 °F 87% 30.39 in 10.0 mi SE 6.9 mph - N/A   Overcast
5:36 AM 50.0 °F 46.4 °F 87% 30.39 in 10.0 mi South 5.8 mph - N/A   Mostly Cloudy
5:56 AM 50.0 °F 46.4 °F 87% 30.38 in 10.0 mi South 4.6 mph - N/A   Partly Cloudy
6:16 AM 50.0 °F 46.4 °F 87% 30.38 in 10.0 mi South 4.6 mph - N/A   Scattered Clouds
6:36 AM 50.0 °F 48.2 °F 94% 30.37 in 10.0 mi Calm Calm - N/A   Mostly Cloudy
6:56 AM 48.2 °F 46.4 °F 93% 30.37 in 10.0 mi SSE 8.1 mph - N/A   Partly Cloudy
7:16 AM 48.2 °F 46.4 °F 93% 30.37 in 10.0 mi South 3.5 mph - N/A   Clear
7:36 AM 48.2 °F 46.4 °F 93% 30.37 in 10.0 mi SSE 10.4 mph - N/A   Clear
7:56 AM 50.0 °F 46.4 °F 87% 30.36 in 10.0 mi SSE 13.8 mph - N/A   Scattered Clouds
8:16 AM 50.0 °F 46.4 °F 87% 30.36 in 10.0 mi SE 13.8 mph - N/A   Mostly Cloudy
8:36 AM 50.0 °F 48.2 °F 94% 30.36 in 10.0 mi SSE 9.2 mph - N/A   Overcast
8:56 AM 50.0 °F 48.2 °F 94% 30.36 in 10.0 mi SSE 10.4 mph - N/A   Mostly Cloudy
9:16 AM 51.8 °F 48.2 °F 88% 30.35 in 10.0 mi SSE 12.7 mph - N/A   Partly Cloudy
9:36 AM 51.8 °F 48.2 °F 88% 30.35 in 10.0 mi SSE 12.7 mph - N/A   Clear
9:56 AM 53.6 °F 48.2 °F 82% 30.35 in 10.0 mi SSE 11.5 mph 17.3 mph N/A   Clear
10:16 AM 53.6 °F 50.0 °F 88% 30.34 in 10.0 mi South 15.0 mph - N/A   Clear
10:36 AM 53.6 °F 50.0 °F 88% 30.34 in 10.0 mi South 12.7 mph - N/A   Clear
10:56 AM 55.4 °F 51.8 °F 88% 30.34 in 10.0 mi South 18.4 mph - N/A   Partly Cloudy
11:16 AM 55.4 °F 50.0 °F 82% 30.34 in 10.0 mi South 16.1 mph - N/A   Partly Cloudy
11:36 AM 53.6 °F 48.2 °F 82% 30.34 in 10.0 mi South 10.4 mph 17.3 mph N/A   Partly Cloudy
11:56 AM 55.4 °F 50.0 °F 82% 30.34 in 10.0 mi South 13.8 mph - N/A   Partly Cloudy
12:16 PM 57.2 °F 51.8 °F 82% 30.34 in 10.0 mi SE 15.0 mph - N/A   Clear
12:36 PM 57.2 °F 51.8 °F 82% 30.34 in 10.0 mi SE 13.8 mph - N/A   Clear
12:56 PM 55.4 °F 50.0 °F 82% 30.34 in 10.0 mi SE 16.1 mph - N/A   Partly Cloudy
1:16 PM 55.4 °F 50.0 °F 82% 30.34 in 10.0 mi SE 17.3 mph - N/A   Clear
1:36 PM 55.4 °F 48.2 °F 77% 30.34 in 10.0 mi SE 17.3 mph - N/A   Clear
1:56 PM 55.4 °F 48.2 °F 77% 30.34 in 10.0 mi SE 18.4 mph - N/A   Clear
2:16 PM 53.6 °F 48.2 °F 82% 30.33 in 10.0 mi SE 13.8 mph 20.7 mph N/A   Partly Cloudy
2:36 PM 55.4 °F 50.0 °F 82% 30.32 in 10.0 mi ESE 11.5 mph - N/A   Scattered Clouds
2:56 PM 55.4 °F 50.0 °F 82% 30.32 in 10.0 mi SE 8.1 mph - N/A   Scattered Clouds
3:16 PM 57.2 °F 51.8 °F 82% 30.32 in 10.0 mi SE 9.2 mph - N/A   Partly Cloudy
3:36 PM 57.2 °F 50.0 °F 77% 30.31 in 10.0 mi SE 12.7 mph - N/A   Partly Cloudy
3:56 PM 55.4 °F 50.0 °F 82% 30.31 in 10.0 mi SSE 9.2 mph - N/A   Scattered Clouds
4:16 PM 55.4 °F 50.0 °F 82% 30.31 in 10.0 mi SE 9.2 mph - N/A   Overcast
4:36 PM 55.4 °F 50.0 °F 82% 30.30 in 10.0 mi SE 11.5 mph - N/A   Overcast
4:56 PM 53.6 °F 48.2 °F 82% 30.30 in 10.0 mi SE 10.4 mph - N/A   Overcast
5:16 PM 53.6 °F 48.2 °F 82% 30.30 in 10.0 mi SE 9.2 mph - N/A   Overcast
5:36 PM 53.6 °F 48.2 °F 82% 30.29 in 10.0 mi SE 10.4 mph - N/A   Overcast
5:56 PM 53.6 °F 48.2 °F 82% 30.29 in 10.0 mi SSE 10.4 mph - N/A   Overcast
6:16 PM 53.6 °F 48.2 °F 82% 30.29 in 10.0 mi SE 9.2 mph - N/A   Overcast
6:36 PM 53.6 °F 48.2 °F 82% 30.29 in 10.0 mi SE 8.1 mph - N/A   Overcast
6:56 PM 51.8 °F 48.2 °F 88% 30.28 in 10.0 mi SE 8.1 mph - N/A   Overcast
7:16 PM 51.8 °F 48.2 °F 88% 30.28 in 10.0 mi SE 11.5 mph - N/A   Overcast
7:36 PM 51.8 °F 48.2 °F 88% 30.28 in 10.0 mi SSE 6.9 mph - N/A   Overcast
7:56 PM 51.8 °F 48.2 °F 88% 30.27 in 9.0 mi SSE 4.6 mph - N/A   Overcast
8:16 PM 51.8 °F 48.2 °F 88% 30.26 in 7.0 mi SSE 6.9 mph - N/A   Overcast
8:36 PM 51.8 °F 48.2 °F 88% 30.26 in 10.0 mi SE 10.4 mph - N/A   Overcast
8:56 PM 51.8 °F 48.2 °F 88% 30.24 in 10.0 mi SE 12.7 mph 16.1 mph N/A   Mostly Cloudy
9:16 PM 51.8 °F 48.2 °F 88% 30.24 in 10.0 mi SE 15.0 mph - N/A   Mostly Cloudy
9:36 PM 51.8 °F 48.2 °F 88% 30.23 in 10.0 mi SE 13.8 mph - N/A   Mostly Cloudy
9:56 PM 51.8 °F 48.2 °F 88% 30.23 in 10.0 mi ESE 11.5 mph - N/A   Mostly Cloudy
10:16 PM 51.8 °F 50.0 °F 94% 30.23 in 10.0 mi East 8.1 mph - N/A   Overcast
10:36 PM 51.8 °F 48.2 °F 88% 30.22 in 10.0 mi ENE 11.5 mph 16.1 mph N/A   Mostly Cloudy
10:56 PM 51.8 °F 48.2 °F 88% 30.22 in 10.0 mi ESE 8.1 mph - N/A   Mostly Cloudy
11:16 PM 51.8 °F 48.2 °F 88% 30.21 in 10.0 mi East 11.5 mph - N/A   Mostly Cloudy
11:36 PM 51.8 °F 48.2 °F 88% 30.21 in 10.0 mi ESE 9.2 mph - N/A   Mostly Cloudy
11:56 PM 51.8 °F 48.2 °F 88% 30.21 in 10.0 mi SSE 8.1 mph 18.4 mph N/A   Overcast